Regional Weather Roundup
Issued by NWS Sioux Falls, SD

Home | Current Version | Previous Version | Graphics & Text | Print | Product List | Glossary Off
Versions: 1 2 3 4 5 6 7 8 9 10 11 12 13 14 15 16 17 18 19 20 21 22 23 24 25 26 27 28 29 30 31 32 33 34 35 36 37 38 39 40 41 42 43 44 45 46 47 48 49 50

000
ASUS43 KFSD 140510
RWRFSD

WEATHER ROUNDUP FOR SE SOUTH DAKOTA/SW MINNESOTA/NW IOWA
NATIONAL WEATHER SERVICE SIOUX FALLS SD
1100 PM CST WED DEC 13 2017

NOTE: "FAIR" INDICATES FEW OR NO CLOUDS BELOW 12,000 FEET WITH NO
SIGNIFICANT WEATHER AND OR OBSTRUCTIONS TO VISIBILITY.


SDZ038>040-050-052>070-140600-
SOUTHEAST SOUTH DAKOTA

CITY           SKY/WX    TMP DP  RH WIND       PRES   REMARKS
BROOKINGS      CLOUDY    26  23  88 NE8       29.96R WCI  18
CHAMBERLAIN    CLOUDY    36  29  76 W6        30.03R
HURON          CLOUDY    33  26  75 NW8       29.99R WCI  26
MADISON        CLOUDY    28  28 100 NW8       29.96R WCI  20
MITCHELL       CLOUDY    35  24  64 NW9       30.02R WCI  28
SIOUX FALLS    CLOUDY    30  27  88 N8        29.97R WCI  22
WINNER         FAIR      31  25  78 NW7       30.05R WCI  24
YANKTON        CLOUDY    35  24  64 NW13      30.00R WCI  26
$$

MNZ071-072-080-081-089-090-097-098-140600-
SOUTHWEST MINNESOTA

CITY           SKY/WX    TMP DP  RH WIND       PRES   REMARKS
FAIRMONT       CLOUDY    23  18  81 N13       29.96R WCI  11
JACKSON        CLOUDY    25  19  80 MISG      29.95R
LUVERNE        CLOUDY    28  23  80 N10       29.97R WCI  19
MARSHALL       CLOUDY    22  17  81 N16       29.99R WCI   8
MONTEVIDEO     CLOUDY    21  18  86 N7        29.99R WCI  13
PIPESTONE      CLOUDY    25  21  86 N8        29.95R WCI  16
REDWOOD FALLS  CLOUDY    23  15  71 N3        29.98R
TRACY          CLOUDY    25  19  80 N10G16    29.97R WCI  15
WINDOM           N/A     25  10  54 N9        29.95R WCI  15
WORTHINGTON    CLOUDY    23  20  88 N17       29.96R WCI   9
$$

IAZ001>003-012>014-020>022-031-032-NEZ013-014-SDZ071-140600-
NORTHWEST IOWA

CITY           SKY/WX    TMP DP  RH WIND       PRES   REMARKS
CHEROKEE       CLOUDY    29  27  91 N6        29.97R WCI  23
DENISON        CLOUDY    34  25  69 N10       29.97R WCI  26
ESTHERVILLE    CLOUDY    24  18  77 N13       29.95R WCI  12
LE MARS        CLOUDY    34  28  80 N9G16     29.98R WCI  26
ORANGE CITY    CLOUDY    30  28  93 N6        29.97R WCI  24
SHELDON        CLOUDY    28  25  86 N10       29.95R WCI  19
SIOUX CITY     CLOUDY    35  28  75 N13       29.99R WCI  26
SPENCER        CLOUDY    27  20  75 N17G25    29.96R WCI  14
STORM LAKE     CLOUDY    27  23  86 N12G21    29.96R WCI  16
$$

ABBREVIATIONS USED IN REMARKS
   TC - TEMPERATURE IN CELSIUS
  WCI - WIND CHILL INDEX
   HX - HEAT INDEX
  VSB - VISIBILITY





USA.gov is the U.S. government's official web portal to all federal, state and local government web resources and services.